Time,TemperatureF,DewpointF,PressureIn,WindDirection,WindDirectionDegrees,WindSpeedMPH,WindSpeedGustMPH,Humidity,HourlyPrecipIn,Conditions,Clouds,dailyrainin,SoftwareType,DateUTC
2013-03-11 00:02:00,66.9,64.2,29.82,ENE,72,2.0,4.0,91,13.87,,---,0.00,VWS V14.01,2013-03-11 05:02:00,
2013-03-11 00:07:00,66.9,64.2,29.82,SE,143,2.0,3.0,91,0.00,,---,0.00,VWS V14.01,2013-03-11 05:07:00,
2013-03-11 00:12:00,66.9,64.2,29.82,SSE,152,1.0,5.0,91,0.00,,---,0.00,VWS V14.01,2013-03-11 05:12:00,
2013-03-11 00:17:00,67.0,64.3,29.82,SW,229,1.0,5.0,91,0.00,,---,0.00,VWS V14.01,2013-03-11 05:17:00,
2013-03-11 00:22:00,67.1,64.4,29.82,ESE,117,1.0,6.0,91,0.00,,---,0.00,VWS V14.01,2013-03-11 05:22:00,
2013-03-11 00:27:00,67.1,64.4,29.82,ESE,120,0.0,6.0,91,0.00,,---,0.00,VWS V14.01,2013-03-11 05:27:00,
2013-03-11 00:32:00,67.1,64.4,29.82,South,188,2.0,6.0,91,0.00,,---,0.00,VWS V14.01,2013-03-11 05:32:00,
2013-03-11 00:37:00,67.2,64.5,29.82,SE,135,1.0,6.0,91,0.00,,---,0.00,VWS V14.01,2013-03-11 05:37:00,
2013-03-11 00:42:00,67.2,64.8,29.82,SE,131,2.0,8.0,92,0.00,,---,0.00,VWS V14.01,2013-03-11 05:42:00,
2013-03-11 00:47:00,67.2,64.8,29.82,SE,139,3.0,8.0,92,0.00,,---,0.00,VWS V14.01,2013-03-11 05:47:00,
2013-03-11 00:52:00,67.2,64.8,29.83,SE,125,1.0,8.0,92,0.00,,---,0.00,VWS V14.01,2013-03-11 05:52:00,
2013-03-11 00:57:00,67.2,64.8,29.83,ESE,113,3.0,8.0,92,0.00,,---,0.00,VWS V14.01,2013-03-11 05:57:00,
2013-03-11 01:02:00,67.3,64.9,29.83,South,188,1.0,8.0,92,0.00,,---,0.00,VWS V14.01,2013-03-11 06:02:00,
2013-03-11 01:07:00,67.3,64.9,29.83,SE,143,2.0,4.0,92,0.00,,---,0.00,VWS V14.01,2013-03-11 06:07:00,
2013-03-11 01:12:00,67.3,64.9,29.83,WSW,252,1.0,4.0,92,0.00,,---,0.00,VWS V14.01,2013-03-11 06:12:00,
2013-03-11 01:17:00,67.3,64.9,29.83,SSE,148,1.0,4.0,92,0.00,,---,0.00,VWS V14.01,2013-03-11 06:17:00,
2013-03-11 01:22:00,67.3,64.9,29.83,SE,139,3.0,7.0,92,0.00,,---,0.00,VWS V14.01,2013-03-11 06:22:00,
2013-03-11 01:27:00,67.2,64.8,29.83,SE,141,3.0,7.0,92,0.00,,---,0.00,VWS V14.01,2013-03-11 06:27:00,
2013-03-11 01:32:00,67.2,65.1,29.83,SE,136,0.0,7.0,93,0.00,,---,0.00,VWS V14.01,2013-03-11 06:32:00,
2013-03-11 01:37:00,67.1,65.0,29.83,West,271,0.0,3.0,93,0.00,,---,0.00,VWS V14.01,2013-03-11 06:37:00,
2013-03-11 01:42:00,67.0,64.9,29.83,SE,135,0.0,4.0,93,0.00,,---,0.00,VWS V14.01,2013-03-11 06:42:00,
2013-03-11 01:47:00,67.0,64.9,29.82,SSE,150,0.0,4.0,93,0.00,,---,0.00,VWS V14.01,2013-03-11 06:47:00,
2013-03-11 01:52:00,67.0,65.2,29.82,SSE,150,0.0,4.0,94,0.00,,---,0.00,VWS V14.01,2013-03-11 06:52:00,
2013-03-11 01:57:00,67.0,65.2,29.82,SSE,154,3.0,4.0,94,0.00,,---,0.00,VWS V14.01,2013-03-11 06:57:00,
2013-03-11 02:02:00,66.9,65.1,29.82,SE,145,0.0,4.0,94,0.00,,---,0.00,VWS V14.01,2013-03-11 07:02:00,
2013-03-11 02:07:00,67.0,65.2,29.82,ESE,112,0.0,4.0,94,0.00,,---,0.00,VWS V14.01,2013-03-11 07:07:00,
2013-03-11 02:12:00,66.9,65.1,29.81,SSE,155,0.0,4.0,94,0.00,,---,0.00,VWS V14.01,2013-03-11 07:12:00,
2013-03-11 02:17:00,66.8,65.3,29.81,ESE,115,0.0,4.0,95,0.00,,---,0.00,VWS V14.01,2013-03-11 07:17:00,
2013-03-11 02:22:00,66.8,65.3,29.80,ESE,103,0.0,4.0,95,0.00,,---,0.00,VWS V14.01,2013-03-11 07:22:00,
2013-03-11 02:27:00,66.8,65.3,29.80,SE,145,1.0,4.0,95,0.00,,---,0.00,VWS V14.01,2013-03-11 07:27:00,
2013-03-11 02:32:00,66.7,65.2,29.80,SE,139,1.0,4.0,95,0.00,,---,0.00,VWS V14.01,2013-03-11 07:32:00,
2013-03-11 02:37:00,66.7,65.2,29.80,SE,135,0.0,2.0,95,0.00,,---,0.00,VWS V14.01,2013-03-11 07:37:00,
2013-03-11 02:42:00,66.7,65.2,29.80,SSW,198,2.0,4.0,95,0.00,,---,0.00,VWS V14.01,2013-03-11 07:42:00,
2013-03-11 02:47:00,66.7,65.5,29.80,SW,235,0.0,4.0,96,0.00,,---,0.00,VWS V14.01,2013-03-11 07:47:00,
2013-03-11 02:52:00,66.6,65.4,29.80,SSE,148,0.0,4.0,96,0.00,,---,0.00,VWS V14.01,2013-03-11 07:52:00,
2013-03-11 02:57:00,66.6,65.4,29.80,SW,224,1.0,4.0,96,0.00,,---,0.00,VWS V14.01,2013-03-11 07:57:00,
2013-03-11 03:02:00,66.6,65.4,29.79,SW,225,0.0,4.0,96,0.00,,---,0.00,VWS V14.01,2013-03-11 08:02:00,
2013-03-11 03:07:00,66.6,65.4,29.79,SW,219,0.0,1.0,96,0.00,,---,0.00,VWS V14.01,2013-03-11 08:07:00,
2013-03-11 03:12:00,66.6,65.4,29.79,SSW,203,0.0,4.0,96,0.00,,---,0.00,VWS V14.01,2013-03-11 08:12:00,
2013-03-11 03:17:00,66.6,65.4,29.78,SE,140,0.0,4.0,96,0.00,,---,0.00,VWS V14.01,2013-03-11 08:17:00,
2013-03-11 03:22:00,66.5,65.3,29.78,ESE,120,0.0,4.0,96,0.00,,---,0.00,VWS V14.01,2013-03-11 08:22:00,
2013-03-11 03:27:00,66.5,65.3,29.78,SE,135,0.0,4.0,96,0.00,,---,0.00,VWS V14.01,2013-03-11 08:27:00,
2013-03-11 03:32:00,66.4,65.2,29.78,SW,228,0.0,4.0,96,0.00,,---,0.00,VWS V14.01,2013-03-11 08:32:00,
2013-03-11 03:37:00,66.3,65.1,29.78,SW,228,0.0,2.0,96,0.00,,---,0.00,VWS V14.01,2013-03-11 08:37:00,
2013-03-11 03:42:00,66.4,65.5,29.77,SE,131,2.0,3.0,97,0.00,,---,0.00,VWS V14.01,2013-03-11 08:42:00,
2013-03-11 03:47:00,66.4,65.5,29.77,SSW,203,0.0,5.0,97,0.00,,---,0.00,VWS V14.01,2013-03-11 08:47:00,
2013-03-11 03:52:00,66.4,65.5,29.77,SW,236,1.0,5.0,97,0.00,,---,0.00,VWS V14.01,2013-03-11 08:52:00,
2013-03-11 03:57:00,66.4,65.5,29.77,SW,231,1.0,5.0,97,0.00,,---,0.00,VWS V14.01,2013-03-11 08:57:00,
2013-03-11 04:02:00,66.4,65.5,29.76,SW,225,0.0,5.0,97,0.00,,---,0.00,VWS V14.01,2013-03-11 09:02:00,
2013-03-11 04:07:00,66.4,65.5,29.76,SSE,160,0.0,4.0,97,0.00,,---,0.00,VWS V14.01,2013-03-11 09:07:00,
2013-03-11 04:12:00,66.5,65.6,29.76,SSW,210,2.0,4.0,97,0.00,,---,0.00,VWS V14.01,2013-03-11 09:12:00,
2013-03-11 04:17:00,66.6,65.7,29.76,South,173,1.0,5.0,97,0.00,,---,0.00,VWS V14.01,2013-03-11 09:17:00,
2013-03-11 04:22:00,66.6,65.7,29.76,WSW,239,2.0,6.0,97,0.00,,---,0.00,VWS V14.01,2013-03-11 09:22:00,
2013-03-11 04:27:00,66.6,65.7,29.76,SSW,193,2.0,6.0,97,0.00,,---,0.00,VWS V14.01,2013-03-11 09:27:00,
2013-03-11 04:32:00,66.7,65.8,29.75,SSE,148,1.0,6.0,97,0.00,,---,0.00,VWS V14.01,2013-03-11 09:32:00,
2013-03-11 04:37:00,66.7,65.8,29.75,South,184,3.0,5.0,97,0.00,,---,0.00,VWS V14.01,2013-03-11 09:37:00,
2013-03-11 04:42:00,66.7,65.8,29.75,SW,214,0.0,5.0,97,0.00,,---,0.00,VWS V14.01,2013-03-11 09:42:00,
2013-03-11 04:47:00,66.7,65.8,29.75,SW,235,0.0,9.0,97,0.00,,---,0.00,VWS V14.01,2013-03-11 09:47:00,
2013-03-11 04:52:00,66.6,65.7,29.75,SE,130,1.0,9.0,97,0.00,,---,0.00,VWS V14.01,2013-03-11 09:52:00,
2013-03-11 04:57:00,66.5,65.6,29.75,SSE,160,0.0,9.0,97,0.00,,---,0.00,VWS V14.01,2013-03-11 09:57:00,
2013-03-11 05:02:00,66.4,65.5,29.76,SSW,195,2.0,9.0,97,0.00,,---,0.00,VWS V14.01,2013-03-11 10:02:00,
2013-03-11 05:07:00,66.3,65.4,29.76,SSE,152,0.0,3.0,97,0.00,,---,0.00,VWS V14.01,2013-03-11 10:07:00,
2013-03-11 05:12:00,66.3,65.4,29.75,WSW,238,1.0,3.0,97,0.00,,---,0.00,VWS V14.01,2013-03-11 10:12:00,
2013-03-11 05:17:00,66.2,65.3,29.75,SW,217,0.0,3.0,97,0.00,,---,0.00,VWS V14.01,2013-03-11 10:17:00,
2013-03-11 05:22:00,66.2,65.3,29.75,SW,218,0.0,3.0,97,0.00,,---,0.00,VWS V14.01,2013-03-11 10:22:00,
2013-03-11 05:27:00,66.2,65.3,29.75,SW,214,0.0,3.0,97,0.00,,---,0.00,VWS V14.01,2013-03-11 10:27:00,
2013-03-11 05:32:00,66.2,65.3,29.75,SE,144,0.0,3.0,97,0.00,,---,0.00,VWS V14.01,2013-03-11 10:32:00,
2013-03-11 05:37:00,66.3,65.4,29.75,SSW,208,0.0,5.0,97,0.00,,---,0.00,VWS V14.01,2013-03-11 10:37:00,
2013-03-11 05:42:00,66.4,65.5,29.75,SSW,210,1.0,6.0,97,0.00,,---,0.00,VWS V14.01,2013-03-11 10:42:00,
2013-03-11 05:47:00,66.5,65.6,29.75,SW,214,2.0,6.0,97,0.00,,---,0.00,VWS V14.01,2013-03-11 10:47:00,
2013-03-11 05:52:00,66.6,65.7,29.76,SE,146,1.0,6.0,97,0.00,,---,0.00,VWS V14.01,2013-03-11 10:52:00,
2013-03-11 05:57:00,66.6,65.7,29.75,South,190,0.0,6.0,97,0.00,,---,0.00,VWS V14.01,2013-03-11 10:57:00,
2013-03-11 06:02:00,66.5,65.6,29.75,SE,127,0.0,6.0,97,0.00,,---,0.00,VWS V14.01,2013-03-11 11:02:00,
2013-03-11 06:07:00,66.6,65.7,29.75,SSE,150,0.0,2.0,97,0.00,,---,0.00,VWS V14.01,2013-03-11 11:07:00,
2013-03-11 06:12:00,66.6,65.7,29.75,SSE,156,1.0,3.0,97,0.00,,---,0.00,VWS V14.01,2013-03-11 11:12:00,
2013-03-11 06:17:00,66.6,65.7,29.75,SW,221,3.0,4.0,97,0.00,,---,0.00,VWS V14.01,2013-03-11 11:17:00,
2013-03-11 06:22:00,66.7,65.8,29.76,SSE,153,2.0,4.0,97,0.00,,---,0.00,VWS V14.01,2013-03-11 11:22:00,
2013-03-11 06:27:00,66.7,65.8,29.76,WSW,239,2.0,4.0,97,0.00,,---,0.00,VWS V14.01,2013-03-11 11:27:00,
2013-03-11 06:32:00,66.8,65.9,29.76,South,191,2.0,4.0,97,0.00,,---,0.00,VWS V14.01,2013-03-11 11:32:00,
2013-03-11 06:37:00,67.0,66.1,29.76,SW,228,1.0,6.0,97,0.00,,---,0.00,VWS V14.01,2013-03-11 11:37:00,
2013-03-11 06:42:00,67.1,65.9,29.76,East,88,1.0,7.0,96,0.00,,---,0.00,VWS V14.01,2013-03-11 11:42:00,
2013-03-11 06:47:00,67.2,66.0,29.76,WSW,255,1.0,9.0,96,0.00,,---,0.00,VWS V14.01,2013-03-11 11:47:00,
2013-03-11 06:52:00,67.3,66.1,29.76,SSW,200,2.0,9.0,96,0.00,,---,0.00,VWS V14.01,2013-03-11 11:52:00,
2013-03-11 06:57:00,67.3,66.1,29.76,SSW,210,6.0,9.0,96,0.00,,---,0.00,VWS V14.01,2013-03-11 11:57:00,
2013-03-11 07:02:00,67.4,66.2,29.76,WSW,249,1.0,9.0,96,0.00,,---,0.00,VWS V14.01,2013-03-11 12:02:00,
2013-03-11 07:07:00,66.8,65.0,29.77,SSW,211,2.0,3.0,94,0.00,,---,0.00,VWS V14.01,2013-03-11 12:07:00,
2013-03-11 07:12:00,64.9,61.6,29.79,WSW,252,0.0,3.0,89,0.00,,---,0.00,VWS V14.01,2013-03-11 12:12:00,
2013-03-11 07:17:00,62.9,59.3,29.80,West,263,0.0,4.0,88,0.01,,---,0.01,VWS V14.01,2013-03-11 12:17:00,
2013-03-11 07:22:00,61.0,58.0,29.80,West,267,1.0,4.0,90,0.08,,---,0.08,VWS V14.01,2013-03-11 12:22:00,
2013-03-11 07:27:00,59.3,57.0,29.81,ESE,115,0.0,4.0,92,0.11,,---,0.11,VWS V14.01,2013-03-11 12:27:00,
2013-03-11 07:32:00,58.3,56.3,29.81,NW,311,0.0,4.0,93,0.11,,---,0.11,VWS V14.01,2013-03-11 12:32:00,
2013-03-11 07:37:00,57.7,56.0,29.81,ENE,78,0.0,2.0,94,0.11,,---,0.11,VWS V14.01,2013-03-11 12:37:00,
2013-03-11 07:42:00,57.1,55.4,29.81,WNW,290,2.0,4.0,94,0.12,,---,0.12,VWS V14.01,2013-03-11 12:42:00,
2013-03-11 07:47:00,56.7,55.3,29.82,SE,139,0.0,4.0,95,0.12,,---,0.12,VWS V14.01,2013-03-11 12:47:00,
2013-03-11 07:52:00,56.5,55.1,29.82,NW,304,0.0,4.0,95,0.12,,---,0.12,VWS V14.01,2013-03-11 12:52:00,
2013-03-11 07:57:00,56.2,55.1,29.81,NNW,331,0.0,4.0,96,0.12,,---,0.12,VWS V14.01,2013-03-11 12:57:00,
2013-03-11 08:02:00,56.0,54.9,29.82,West,276,0.0,4.0,96,0.12,,---,0.12,VWS V14.01,2013-03-11 13:02:00,
2013-03-11 08:07:00,55.8,54.7,29.81,WNW,300,3.0,5.0,96,0.12,,---,0.12,VWS V14.01,2013-03-11 13:07:00,
2013-03-11 08:12:00,55.3,54.2,29.82,West,262,0.0,6.0,96,0.12,,---,0.12,VWS V14.01,2013-03-11 13:12:00,
2013-03-11 08:17:00,54.7,53.3,29.83,ENE,72,4.0,6.0,95,0.12,,---,0.12,VWS V14.01,2013-03-11 13:17:00,
2013-03-11 08:22:00,54.1,52.7,29.83,WNW,302,1.0,6.0,95,0.12,,---,0.12,VWS V14.01,2013-03-11 13:22:00,
2013-03-11 08:27:00,53.6,52.2,29.84,East,91,1.0,6.0,95,0.12,,---,0.12,VWS V14.01,2013-03-11 13:27:00,
2013-03-11 08:32:00,53.3,51.9,29.84,West,272,0.0,6.0,95,0.12,,---,0.12,VWS V14.01,2013-03-11 13:32:00,
2013-03-11 08:37:00,53.0,51.9,29.84,East,96,0.0,7.0,96,0.01,,---,0.12,VWS V14.01,2013-03-11 13:37:00,
2013-03-11 08:42:00,52.9,51.8,29.84,NW,304,3.0,7.0,96,0.01,,---,0.12,VWS V14.01,2013-03-11 13:42:00,
2013-03-11 08:47:00,52.7,51.6,29.84,WNW,300,0.0,7.0,96,0.01,,---,0.12,VWS V14.01,2013-03-11 13:47:00,
2013-03-11 08:52:00,52.6,51.5,29.85,NNW,330,0.0,7.0,96,0.01,,---,0.12,VWS V14.01,2013-03-11 13:52:00,
2013-03-11 08:57:00,52.5,51.4,29.85,NNE,14,0.0,7.0,96,0.01,,---,0.12,VWS V14.01,2013-03-11 13:57:00,
2013-03-11 09:02:00,52.1,50.7,29.85,West,274,1.0,7.0,95,0.01,,---,0.12,VWS V14.01,2013-03-11 14:02:00,
2013-03-11 09:07:00,51.9,50.5,29.86,SW,231,0.0,4.0,95,0.00,,---,0.12,VWS V14.01,2013-03-11 14:07:00,
2013-03-11 09:12:00,51.7,50.3,29.86,NW,313,0.0,4.0,95,0.00,,---,0.12,VWS V14.01,2013-03-11 14:12:00,
2013-03-11 09:17:00,51.6,50.5,29.86,West,273,0.0,4.0,96,0.00,,---,0.12,VWS V14.01,2013-03-11 14:17:00,
2013-03-11 09:22:00,51.5,50.4,29.86,West,280,0.0,4.0,96,0.00,,---,0.12,VWS V14.01,2013-03-11 14:22:00,
2013-03-11 09:27:00,51.5,50.4,29.86,NW,309,0.0,4.0,96,0.00,,---,0.12,VWS V14.01,2013-03-11 14:27:00,
2013-03-11 09:32:00,51.4,50.3,29.86,West,260,3.0,4.0,96,0.00,,---,0.12,VWS V14.01,2013-03-11 14:32:00,
2013-03-11 09:37:00,51.1,49.7,29.86,SW,229,1.0,9.0,95,0.00,,---,0.12,VWS V14.01,2013-03-11 14:37:00,
2013-03-11 09:42:00,50.9,49.5,29.87,NW,307,2.0,9.0,95,0.00,,---,0.12,VWS V14.01,2013-03-11 14:42:00,
2013-03-11 09:47:00,50.7,49.3,29.87,SW,232,0.0,9.0,95,0.00,,---,0.12,VWS V14.01,2013-03-11 14:47:00,
2013-03-11 09:52:00,50.5,48.8,29.86,NNW,343,2.0,9.0,94,0.00,,---,0.12,VWS V14.01,2013-03-11 14:52:00,
2013-03-11 09:57:00,50.4,48.7,29.86,ESE,118,2.0,9.0,94,0.00,,---,0.12,VWS V14.01,2013-03-11 14:57:00,
2013-03-11 10:02:00,50.4,48.7,29.86,West,278,0.0,9.0,94,0.00,,---,0.12,VWS V14.01,2013-03-11 15:02:00,
2013-03-11 10:07:00,50.2,48.5,29.86,SE,142,0.0,7.0,94,0.00,,---,0.12,VWS V14.01,2013-03-11 15:07:00,
2013-03-11 10:12:00,50.1,48.4,29.85,NNW,329,0.0,7.0,94,0.00,,---,0.12,VWS V14.01,2013-03-11 15:12:00,
2013-03-11 10:17:00,50.1,48.2,29.85,North,349,1.0,9.0,93,0.00,,---,0.12,VWS V14.01,2013-03-11 15:17:00,
2013-03-11 10:22:00,50.3,48.6,29.84,East,91,0.0,9.0,94,0.00,,---,0.12,VWS V14.01,2013-03-11 15:22:00,
2013-03-11 10:27:00,50.3,48.6,29.85,NNW,329,0.0,9.0,94,0.00,,---,0.12,VWS V14.01,2013-03-11 15:27:00,
2013-03-11 10:32:00,50.5,48.8,29.85,West,271,0.0,9.0,94,0.00,,---,0.12,VWS V14.01,2013-03-11 15:32:00,
2013-03-11 10:37:00,50.6,48.9,29.86,East,90,0.0,1.0,94,0.00,,---,0.12,VWS V14.01,2013-03-11 15:37:00,
2013-03-11 10:42:00,50.8,49.1,29.86,NE,51,1.0,2.0,94,0.00,,---,0.12,VWS V14.01,2013-03-11 15:42:00,
2013-03-11 10:47:00,50.8,48.8,29.87,West,274,0.0,2.0,93,0.00,,---,0.12,VWS V14.01,2013-03-11 15:47:00,
2013-03-11 10:52:00,50.9,49.0,29.87,SW,222,0.0,2.0,93,0.00,,---,0.12,VWS V14.01,2013-03-11 15:52:00,
2013-03-11 10:57:00,51.0,49.0,29.88,SE,146,0.0,4.0,93,0.00,,---,0.12,VWS V14.01,2013-03-11 15:57:00,
2013-03-11 11:02:00,51.0,48.8,29.88,West,266,1.0,4.0,92,0.00,,---,0.12,VWS V14.01,2013-03-11 16:02:00,
2013-03-11 11:07:00,51.2,49.2,29.86,WNW,290,0.0,1.0,93,0.00,,---,0.12,VWS V14.01,2013-03-11 16:07:00,
2013-03-11 11:12:00,51.1,48.9,29.86,NW,321,0.0,2.0,92,0.00,,---,0.12,VWS V14.01,2013-03-11 16:12:00,
2013-03-11 11:17:00,51.2,49.0,29.86,ESE,122,1.0,2.0,92,0.00,,---,0.12,VWS V14.01,2013-03-11 16:17:00,
2013-03-11 11:22:00,51.2,49.0,29.86,WNW,290,0.0,4.0,92,0.00,,---,0.12,VWS V14.01,2013-03-11 16:22:00,
2013-03-11 11:27:00,51.4,49.2,29.86,NNW,343,0.0,4.0,92,0.00,,---,0.12,VWS V14.01,2013-03-11 16:27:00,
2013-03-11 11:32:00,51.7,49.5,29.86,South,191,0.0,4.0,92,0.00,,---,0.12,VWS V14.01,2013-03-11 16:32:00,
2013-03-11 11:37:00,51.7,49.2,29.86,East,81,0.0,4.0,91,0.00,,---,0.12,VWS V14.01,2013-03-11 16:37:00,
2013-03-11 11:42:00,51.8,49.5,29.85,SSW,201,0.0,4.0,92,0.00,,---,0.12,VWS V14.01,2013-03-11 16:42:00,
2013-03-11 11:47:00,51.7,49.2,29.85,East,94,0.0,4.0,91,0.00,,---,0.12,VWS V14.01,2013-03-11 16:47:00,
2013-03-11 11:52:00,51.5,48.7,29.85,WNW,301,1.0,4.0,90,0.00,,---,0.12,VWS V14.01,2013-03-11 16:52:00,
2013-03-11 11:57:00,51.4,48.6,29.85,West,259,1.0,4.0,90,0.00,,---,0.12,VWS V14.01,2013-03-11 16:57:00,
2013-03-11 12:02:00,51.5,49.0,29.85,SW,229,0.0,4.0,91,0.00,,---,0.12,VWS V14.01,2013-03-11 17:02:00,
2013-03-11 12:07:00,51.7,49.2,29.85,NNE,20,0.0,1.0,91,0.00,,---,0.12,VWS V14.01,2013-03-11 17:07:00,
2013-03-11 12:12:00,51.7,48.9,29.85,SW,233,0.0,2.0,90,0.00,,---,0.12,VWS V14.01,2013-03-11 17:12:00,
2013-03-11 12:17:00,51.9,49.1,29.85,West,263,1.0,2.0,90,0.00,,---,0.12,VWS V14.01,2013-03-11 17:17:00,
2013-03-11 12:22:00,52.1,49.3,29.85,ENE,77,2.0,4.0,90,0.00,,---,0.12,VWS V14.01,2013-03-11 17:22:00,
2013-03-11 12:27:00,52.3,49.2,29.85,NNW,332,4.0,4.0,89,0.00,,---,0.12,VWS V14.01,2013-03-11 17:27:00,
2013-03-11 12:32:00,52.6,49.5,29.85,ESE,108,0.0,7.0,89,0.00,,---,0.12,VWS V14.01,2013-03-11 17:32:00,
2013-03-11 12:37:00,52.8,49.0,29.84,North,349,1.0,5.0,87,0.00,,---,0.12,VWS V14.01,2013-03-11 17:37:00,
2013-03-11 12:42:00,52.8,49.0,29.85,WSW,255,0.0,5.0,87,0.00,,---,0.12,VWS V14.01,2013-03-11 17:42:00,
2013-03-11 12:47:00,52.8,48.7,29.84,WNW,302,4.0,5.0,86,0.00,,---,0.12,VWS V14.01,2013-03-11 17:47:00,
2013-03-11 12:52:00,52.4,48.3,29.84,NW,314,1.0,5.0,86,0.00,,---,0.12,VWS V14.01,2013-03-11 17:52:00,
2013-03-11 12:57:00,52.0,47.3,29.84,West,266,0.0,5.0,84,0.00,,---,0.12,VWS V14.01,2013-03-11 17:57:00,
2013-03-11 13:02:00,51.7,47.7,29.84,NE,44,1.0,5.0,86,0.00,,---,0.12,VWS V14.01,2013-03-11 18:02:00,
2013-03-11 13:07:00,51.4,47.7,29.85,ENE,64,0.0,3.0,87,0.00,,---,0.12,VWS V14.01,2013-03-11 18:07:00,
2013-03-11 13:12:00,51.2,47.5,29.83,NNW,328,0.0,3.0,87,0.00,,---,0.12,VWS V14.01,2013-03-11 18:12:00,
2013-03-11 13:17:00,51.2,48.1,29.83,West,264,0.0,3.0,89,0.00,,---,0.12,VWS V14.01,2013-03-11 18:17:00,
2013-03-11 13:22:00,51.0,47.6,29.83,WNW,285,1.0,3.0,88,0.00,,---,0.12,VWS V14.01,2013-03-11 18:22:00,
2013-03-11 13:27:00,50.8,47.4,29.82,NE,39,0.0,3.0,88,0.00,,---,0.12,VWS V14.01,2013-03-11 18:27:00,
2013-03-11 13:32:00,51.3,48.2,29.82,East,86,0.0,3.0,89,0.00,,---,0.12,VWS V14.01,2013-03-11 18:32:00,
2013-03-11 13:37:00,51.6,48.5,29.83,East,91,1.0,2.0,89,0.00,,---,0.12,VWS V14.01,2013-03-11 18:37:00,
2013-03-11 13:42:00,51.6,48.2,29.82,SSW,208,0.0,4.0,88,0.00,,---,0.12,VWS V14.01,2013-03-11 18:42:00,
2013-03-11 13:47:00,51.2,47.8,29.82,WNW,284,0.0,4.0,88,0.00,,---,0.12,VWS V14.01,2013-03-11 18:47:00,
2013-03-11 13:52:00,51.0,47.9,29.82,ENE,73,1.0,4.0,89,0.00,,---,0.12,VWS V14.01,2013-03-11 18:52:00,
2013-03-11 13:57:00,50.8,47.7,29.82,NW,312,0.0,4.0,89,0.00,,---,0.12,VWS V14.01,2013-03-11 18:57:00,
2013-03-11 14:02:00,50.6,47.5,29.82,ESE,112,0.0,4.0,89,0.00,,---,0.12,VWS V14.01,2013-03-11 19:02:00,
2013-03-11 14:07:00,50.4,47.6,29.82,WNW,302,0.0,2.0,90,0.00,,---,0.12,VWS V14.01,2013-03-11 19:07:00,
2013-03-11 14:12:00,50.3,47.5,29.82,SE,124,0.0,3.0,90,0.00,,---,0.12,VWS V14.01,2013-03-11 19:12:00,
2013-03-11 14:17:00,50.2,47.4,29.81,NW,309,0.0,3.0,90,0.00,,---,0.12,VWS V14.01,2013-03-11 19:17:00,
2013-03-11 14:22:00,50.2,47.4,29.81,NNW,338,0.0,3.0,90,0.00,,---,0.12,VWS V14.01,2013-03-11 19:22:00,
2013-03-11 14:27:00,50.4,47.3,29.81,West,259,0.0,3.0,89,0.00,,---,0.12,VWS V14.01,2013-03-11 19:27:00,
2013-03-11 14:32:00,50.7,47.3,29.81,SE,139,0.0,3.0,88,0.00,,---,0.12,VWS V14.01,2013-03-11 19:32:00,
2013-03-11 14:37:00,51.2,47.5,29.81,WNW,297,0.0,3.0,87,0.00,,---,0.12,VWS V14.01,2013-03-11 19:37:00,
2013-03-11 14:42:00,52.0,47.6,29.81,WNW,291,1.0,4.0,85,0.00,,---,0.12,VWS V14.01,2013-03-11 19:42:00,
2013-03-11 14:47:00,52.7,48.0,29.81,West,263,0.0,4.0,84,0.00,,---,0.12,VWS V14.01,2013-03-11 19:47:00,
2013-03-11 14:52:00,53.3,48.0,29.80,North,355,0.0,5.0,82,0.00,,---,0.12,VWS V14.01,2013-03-11 19:52:00,
2013-03-11 14:57:00,54.0,48.0,29.80,NW,304,1.0,5.0,80,0.00,,---,0.12,VWS V14.01,2013-03-11 19:57:00,
2013-03-11 15:02:00,54.8,48.8,29.80,North,352,2.0,6.0,80,0.00,,---,0.12,VWS V14.01,2013-03-11 20:02:00,
2013-03-11 15:07:00,55.4,48.7,29.80,West,270,2.0,6.0,78,0.00,,---,0.12,VWS V14.01,2013-03-11 20:07:00,
2013-03-11 15:12:00,55.5,48.4,29.80,East,95,0.0,6.0,77,0.00,,---,0.12,VWS V14.01,2013-03-11 20:12:00,
2013-03-11 15:17:00,56.4,49.6,29.79,East,91,2.0,6.0,78,0.00,,---,0.12,VWS V14.01,2013-03-11 20:17:00,
2013-03-11 15:22:00,57.1,49.3,29.80,NE,55,2.0,6.0,75,0.00,,---,0.12,VWS V14.01,2013-03-11 20:22:00,
2013-03-11 15:27:00,56.8,49.0,29.79,East,94,3.0,6.0,75,0.00,,---,0.12,VWS V14.01,2013-03-11 20:27:00,
2013-03-11 15:32:00,56.8,48.6,29.80,SW,222,0.0,6.0,74,0.00,,---,0.12,VWS V14.01,2013-03-11 20:32:00,
2013-03-11 15:37:00,57.8,49.6,29.79,NE,34,1.0,4.0,74,0.00,,---,0.12,VWS V14.01,2013-03-11 20:37:00,
2013-03-11 15:42:00,58.6,49.6,29.80,WSW,257,1.0,4.0,72,0.00,,---,0.12,VWS V14.01,2013-03-11 20:42:00,
2013-03-11 15:47:00,58.6,49.2,29.80,West,270,1.0,4.0,71,0.00,,---,0.12,VWS V14.01,2013-03-11 20:47:00,
2013-03-11 15:53:00,57.5,48.2,29.79,WNW,293,2.0,6.0,71,0.00,,---,0.12,VWS V14.01,2013-03-11 20:53:00,
2013-03-11 15:58:00,57.2,48.6,29.79,WNW,285,2.0,6.0,73,0.00,,---,0.12,VWS V14.01,2013-03-11 20:58:00,
2013-03-11 16:02:00,56.9,48.0,29.79,NW,317,1.0,6.0,72,0.00,,---,0.12,VWS V14.01,2013-03-11 21:02:00,
2013-03-11 16:07:00,56.5,48.3,29.79,WNW,291,0.0,3.0,74,0.00,,---,0.12,VWS V14.01,2013-03-11 21:07:00,
2013-03-11 16:13:00,56.8,48.2,29.79,South,184,0.0,3.0,73,0.00,,---,0.12,VWS V14.01,2013-03-11 21:13:00,
2013-03-11 16:18:00,56.9,48.0,29.79,East,87,0.0,4.0,72,0.00,,---,0.12,VWS V14.01,2013-03-11 21:18:00,
2013-03-11 16:23:00,57.1,48.5,29.79,NW,307,2.0,4.0,73,0.00,,---,0.12,VWS V14.01,2013-03-11 21:23:00,
2013-03-11 16:28:00,57.8,48.8,29.79,SW,229,2.0,4.0,72,0.00,,---,0.12,VWS V14.01,2013-03-11 21:28:00,
2013-03-11 16:33:00,57.9,48.9,29.79,NNW,330,0.0,7.0,72,0.00,,---,0.12,VWS V14.01,2013-03-11 21:33:00,
2013-03-11 16:38:00,58.0,48.7,29.79,SSW,198,0.0,2.0,71,0.00,,---,0.12,VWS V14.01,2013-03-11 21:38:00,
2013-03-11 16:43:00,57.9,49.3,29.80,WNW,283,1.0,4.0,73,0.00,,---,0.12,VWS V14.01,2013-03-11 21:43:00,
2013-03-11 16:48:00,57.8,48.5,29.80,SSW,195,0.0,4.0,71,0.00,,---,0.12,VWS V14.01,2013-03-11 21:48:00,
2013-03-11 16:53:00,57.5,48.2,29.80,WNW,293,0.0,4.0,71,0.00,,---,0.12,VWS V14.01,2013-03-11 21:53:00,
2013-03-11 16:58:00,57.3,48.4,29.80,West,262,0.0,4.0,72,0.00,,---,0.12,VWS V14.01,2013-03-11 21:58:00,
2013-03-11 17:03:00,56.9,48.0,29.80,North,355,3.0,4.0,72,0.00,,---,0.12,VWS V14.01,2013-03-11 22:03:00,
2013-03-11 17:08:00,56.6,48.1,29.80,WNW,293,0.0,3.0,73,0.00,,---,0.12,VWS V14.01,2013-03-11 22:08:00,
2013-03-11 17:13:00,56.5,48.3,29.80,North,356,1.0,4.0,74,0.00,,---,0.12,VWS V14.01,2013-03-11 22:13:00,
2013-03-11 17:18:00,56.2,48.0,29.81,WNW,293,0.0,4.0,74,0.00,,---,0.12,VWS V14.01,2013-03-11 22:18:00,
2013-03-11 17:23:00,56.3,48.1,29.81,SW,228,0.0,4.0,74,0.00,,---,0.12,VWS V14.01,2013-03-11 22:23:00,
2013-03-11 17:28:00,57.2,49.0,29.81,NE,38,0.0,4.0,74,0.00,,---,0.12,VWS V14.01,2013-03-11 22:28:00,
2013-03-11 17:33:00,57.6,49.0,29.81,East,85,0.0,4.0,73,0.00,,---,0.12,VWS V14.01,2013-03-11 22:33:00,
2013-03-11 17:38:00,57.6,48.7,29.81,West,260,0.0,2.0,72,0.00,,---,0.12,VWS V14.01,2013-03-11 22:38:00,
2013-03-11 17:42:00,57.6,48.7,29.81,SE,132,0.0,3.0,72,0.00,,---,0.12,VWS V14.01,2013-03-11 22:42:00,
2013-03-11 17:47:00,57.6,48.7,29.81,WSW,240,0.0,3.0,72,0.00,,---,0.12,VWS V14.01,2013-03-11 22:47:00,
2013-03-11 17:52:00,57.5,48.6,29.81,NNW,328,0.0,3.0,72,0.00,,---,0.12,VWS V14.01,2013-03-11 22:52:00,
2013-03-11 17:58:00,57.2,48.3,29.81,NW,325,0.0,3.0,72,0.00,,---,0.12,VWS V14.01,2013-03-11 22:58:00,
2013-03-11 18:03:00,57.0,48.8,29.81,ESE,114,1.0,3.0,74,0.00,,---,0.12,VWS V14.01,2013-03-11 23:03:00,
2013-03-11 18:08:00,56.6,48.1,29.81,SW,231,0.0,3.0,73,0.00,,---,0.12,VWS V14.01,2013-03-11 23:08:00,
2013-03-11 18:13:00,56.2,47.7,29.81,SSE,155,0.0,3.0,73,0.00,,---,0.12,VWS V14.01,2013-03-11 23:13:00,
2013-03-11 18:18:00,55.9,47.7,29.82,WSW,257,0.0,4.0,74,0.00,,---,0.12,VWS V14.01,2013-03-11 23:18:00,
2013-03-11 18:23:00,55.6,47.8,29.81,NW,326,0.0,4.0,75,0.00,,---,0.12,VWS V14.01,2013-03-11 23:23:00,
2013-03-11 18:28:00,55.2,47.1,29.82,WNW,285,0.0,4.0,74,0.00,,---,0.12,VWS V14.01,2013-03-11 23:28:00,
2013-03-11 18:33:00,54.9,47.5,29.82,WSW,243,0.0,4.0,76,0.00,,---,0.12,VWS V14.01,2013-03-11 23:33:00,
2013-03-11 18:38:00,54.5,47.5,29.82,South,170,0.0,0.0,77,0.00,,---,0.12,VWS V14.01,2013-03-11 23:38:00,
2013-03-11 18:43:00,54.1,47.1,29.82,SE,127,0.0,0.0,77,0.00,,---,0.12,VWS V14.01,2013-03-11 23:43:00,
2013-03-11 18:48:00,53.7,47.3,29.83,SE,127,0.0,0.0,79,0.00,,---,0.12,VWS V14.01,2013-03-11 23:48:00,
2013-03-11 18:53:00,53.4,47.4,29.83,SE,127,0.0,0.0,80,0.00,,---,0.12,VWS V14.01,2013-03-11 23:53:00,
2013-03-11 18:58:00,52.9,47.6,29.83,SE,127,0.0,0.0,82,0.00,,---,0.12,VWS V14.01,2013-03-11 23:58:00,
2013-03-11 19:03:00,52.4,47.4,29.83,SE,127,0.0,0.0,83,0.00,,---,0.12,VWS V14.01,2013-03-12 00:03:00,
2013-03-11 19:08:00,51.7,47.0,29.83,SE,127,0.0,0.0,84,0.00,,---,0.12,VWS V14.01,2013-03-12 00:08:00,
2013-03-11 19:13:00,51.2,46.8,29.83,SE,127,0.0,0.0,85,0.00,,---,0.12,VWS V14.01,2013-03-12 00:13:00,
2013-03-11 19:18:00,50.5,46.5,29.83,SE,127,0.0,0.0,86,0.00,,---,0.12,VWS V14.01,2013-03-12 00:18:00,
2013-03-11 19:23:00,49.9,46.2,29.83,SE,127,0.0,0.0,87,0.00,,---,0.12,VWS V14.01,2013-03-12 00:23:00,
2013-03-11 19:27:00,49.4,46.0,29.83,SE,127,0.0,0.0,88,0.00,,---,0.12,VWS V14.01,2013-03-12 00:27:00,
2013-03-11 19:32:00,48.8,45.7,29.84,SE,127,0.0,0.0,89,0.00,,---,0.12,VWS V14.01,2013-03-12 00:32:00,
2013-03-11 19:37:00,48.5,45.7,29.84,SE,127,0.0,0.0,90,0.00,,---,0.12,VWS V14.01,2013-03-12 00:37:00,
2013-03-11 19:43:00,48.1,45.3,29.84,SE,127,0.0,0.0,90,0.00,,---,0.12,VWS V14.01,2013-03-12 00:43:00,
2013-03-11 19:47:00,47.6,44.8,29.84,SE,127,0.0,0.0,90,0.00,,---,0.12,VWS V14.01,2013-03-12 00:47:00,
2013-03-11 19:53:00,47.3,44.8,29.84,SE,127,0.0,0.0,91,0.00,,---,0.12,VWS V14.01,2013-03-12 00:53:00,
2013-03-11 19:58:00,47.1,44.9,29.85,SE,127,0.0,0.0,92,0.00,,---,0.12,VWS V14.01,2013-03-12 00:58:00,
2013-03-11 20:03:00,46.7,44.5,29.85,SE,127,0.0,0.0,92,0.00,,---,0.12,VWS V14.01,2013-03-12 01:03:00,
2013-03-11 20:08:00,46.4,44.5,29.85,SE,127,0.0,0.0,93,0.00,,---,0.12,VWS V14.01,2013-03-12 01:08:00,
2013-03-11 20:13:00,46.1,44.2,29.85,SE,127,0.0,0.0,93,0.00,,---,0.12,VWS V14.01,2013-03-12 01:13:00,
2013-03-11 20:18:00,45.8,43.9,29.85,SE,127,0.0,0.0,93,0.00,,---,0.12,VWS V14.01,2013-03-12 01:18:00,
2013-03-11 20:23:00,45.6,44.0,29.86,SE,127,0.0,0.0,94,0.00,,---,0.12,VWS V14.01,2013-03-12 01:23:00,
2013-03-11 20:28:00,45.5,43.9,29.86,SE,127,0.0,0.0,94,0.00,,---,0.12,VWS V14.01,2013-03-12 01:28:00,
2013-03-11 20:33:00,45.2,43.6,29.86,SE,127,0.0,0.0,94,0.00,,---,0.12,VWS V14.01,2013-03-12 01:33:00,
2013-03-11 20:38:00,45.0,43.4,29.86,SE,127,0.0,0.0,94,0.00,,---,0.12,VWS V14.01,2013-03-12 01:38:00,
2013-03-11 20:43:00,44.8,43.5,29.86,SE,127,0.0,0.0,95,0.00,,---,0.12,VWS V14.01,2013-03-12 01:43:00,
2013-03-11 20:48:00,44.7,43.4,29.86,SE,127,0.0,0.0,95,0.00,,---,0.12,VWS V14.01,2013-03-12 01:48:00,
2013-03-11 20:52:00,44.6,43.3,29.87,SE,127,0.0,0.0,95,0.00,,---,0.12,VWS V14.01,2013-03-12 01:52:00,
2013-03-11 20:57:00,44.4,43.1,29.87,SE,127,0.0,0.0,95,0.00,,---,0.12,VWS V14.01,2013-03-12 01:57:00,
2013-03-11 21:02:00,44.3,43.0,29.87,SE,127,0.0,0.0,95,0.00,,---,0.12,VWS V14.01,2013-03-12 02:02:00,
2013-03-11 21:07:00,44.3,43.2,29.87,SE,127,0.0,0.0,96,0.00,,---,0.12,VWS V14.01,2013-03-12 02:07:00,
2013-03-11 21:12:00,44.3,43.2,29.88,SE,127,0.0,0.0,96,0.00,,---,0.12,VWS V14.01,2013-03-12 02:12:00,
2013-03-11 21:17:00,44.3,43.2,29.88,SE,127,0.0,0.0,96,0.00,,---,0.12,VWS V14.01,2013-03-12 02:17:00,
2013-03-11 21:22:00,44.2,43.1,29.88,SE,127,0.0,0.0,96,0.00,,---,0.12,VWS V14.01,2013-03-12 02:22:00,
2013-03-11 21:28:00,44.2,43.1,29.88,SE,127,0.0,0.0,96,0.00,,---,0.12,VWS V14.01,2013-03-12 02:28:00,
2013-03-11 21:33:00,44.1,43.0,29.89,SE,127,0.0,0.0,96,0.00,,---,0.12,VWS V14.01,2013-03-12 02:33:00,
2013-03-11 21:38:00,44.1,43.0,29.89,SE,127,0.0,0.0,96,0.00,,---,0.12,VWS V14.01,2013-03-12 02:38:00,
2013-03-11 21:43:00,43.9,42.8,29.89,SE,127,0.0,0.0,96,0.00,,---,0.12,VWS V14.01,2013-03-12 02:43:00,
2013-03-11 21:48:00,43.9,42.8,29.89,SE,127,0.0,0.0,96,0.00,,---,0.12,VWS V14.01,2013-03-12 02:48:00,
2013-03-11 21:53:00,43.7,42.6,29.89,SE,127,0.0,0.0,96,0.00,,---,0.12,VWS V14.01,2013-03-12 02:53:00,
2013-03-11 21:58:00,43.7,42.6,29.90,SE,127,0.0,0.0,96,0.00,,---,0.12,VWS V14.01,2013-03-12 02:58:00,
2013-03-11 22:03:00,43.5,42.4,29.90,SE,127,0.0,0.0,96,0.00,,---,0.12,VWS V14.01,2013-03-12 03:03:00,
2013-03-11 22:08:00,43.3,42.2,29.90,SE,127,0.0,0.0,96,0.00,,---,0.12,VWS V14.01,2013-03-12 03:08:00,
2013-03-11 22:12:00,43.1,42.0,29.90,SE,127,0.0,0.0,96,0.00,,---,0.12,VWS V14.01,2013-03-12 03:12:00,
2013-03-11 22:17:00,43.1,42.3,29.91,SE,127,0.0,0.0,97,0.00,,---,0.12,VWS V14.01,2013-03-12 03:17:00,
2013-03-11 22:22:00,43.0,42.2,29.91,SE,127,0.0,0.0,97,0.00,,---,0.12,VWS V14.01,2013-03-12 03:22:00,
2013-03-11 22:27:00,42.9,42.1,29.91,SE,127,0.0,0.0,97,0.00,,---,0.12,VWS V14.01,2013-03-12 03:27:00,
2013-03-11 22:32:00,42.7,41.9,29.91,SE,127,0.0,0.0,97,0.00,,---,0.12,VWS V14.01,2013-03-12 03:32:00,
2013-03-11 22:37:00,42.5,41.7,29.91,SE,127,0.0,0.0,97,0.00,,---,0.12,VWS V14.01,2013-03-12 03:37:00,
2013-03-11 22:42:00,42.4,41.6,29.92,SE,127,0.0,0.0,97,0.00,,---,0.12,VWS V14.01,2013-03-12 03:42:00,
2013-03-11 22:47:00,42.3,41.5,29.92,SE,127,0.0,0.0,97,0.00,,---,0.12,VWS V14.01,2013-03-12 03:47:00,
2013-03-11 22:53:00,42.1,41.3,29.92,SE,127,0.0,0.0,97,0.00,,---,0.12,VWS V14.01,2013-03-12 03:53:00,
2013-03-11 22:58:00,41.9,41.1,29.92,SE,127,0.0,0.0,97,0.00,,---,0.12,VWS V14.01,2013-03-12 03:58:00,
2013-03-11 23:00:00,41.9,41.1,29.92,SE,127,0.0,0.0,97,0.00,,---,0.12,VWS V14.01,2013-03-12 04:00:00,
2013-03-11 23:05:00,41.9,41.1,29.92,SE,127,0.0,0.0,97,0.00,,---,0.12,VWS V14.01,2013-03-12 04:05:00,
2013-03-11 23:10:00,41.9,41.1,29.92,SE,127,0.0,0.0,97,0.00,,---,0.12,VWS V14.01,2013-03-12 04:10:00,
2013-03-11 23:15:00,42.0,41.2,29.92,SE,127,0.0,0.0,97,0.00,,---,0.12,VWS V14.01,2013-03-12 04:15:00,
2013-03-11 23:20:00,42.0,41.2,29.92,SE,127,0.0,0.0,97,0.00,,---,0.12,VWS V14.01,2013-03-12 04:20:00,
2013-03-11 23:25:00,41.9,41.1,29.93,SE,127,0.0,0.0,97,0.00,,---,0.12,VWS V14.01,2013-03-12 04:25:00,
2013-03-11 23:30:00,41.9,41.1,29.93,SE,127,0.0,0.0,97,0.00,,---,0.12,VWS V14.01,2013-03-12 04:30:00,
2013-03-11 23:35:00,41.9,41.1,29.93,SE,127,0.0,0.0,97,0.00,,---,0.12,VWS V14.01,2013-03-12 04:35:00,
2013-03-11 23:40:00,42.0,41.2,29.92,SE,127,0.0,0.0,97,0.00,,---,0.12,VWS V14.01,2013-03-12 04:40:00,
2013-03-11 23:45:00,42.0,41.2,29.92,SE,127,0.0,0.0,97,0.00,,---,0.12,VWS V14.01,2013-03-12 04:45:00,
2013-03-11 23:50:00,41.9,41.1,29.92,SE,127,0.0,0.0,97,0.00,,---,0.12,VWS V14.01,2013-03-12 04:50:00,
2013-03-11 23:55:00,41.9,41.1,29.93,SE,127,0.0,0.0,97,0.00,,---,0.12,VWS V14.01,2013-03-12 04:55:00,